sat.trackr.live / text

‹ back to catalog

STARLINK-31964

NORAD 59895 · 2024-100L

PAYLOAD ACTIVE UNKNOWN

§ Identity

Operator
Country
US
Launch date
2024-05-28
Launch site
AFETR
Launch vehicle
Mass (kg)
RCS (m²)

Purposes: comms

External: N2YO · Heavens-Above · Gunter

§ Orbital elements

Epoch: 2026-09-21T20:49:00.915744Z

Period
94.27 min
Inclination
43.0036°
Eccentricity
0.0001777
Mean motion
15.27576992 rev/d
Perigee alt
481.8 km
Apogee alt
484.3 km
Semi-major
6,861.2 km
B*
1.1616e-5
RAAN
97.1485°
Arg perigee
273.6197°
Mean anomaly
86.4451°
Rev number
13,111

§ Raw data

STARLINK-319641 59895U 24100L   26264.86737171  .00000057  00000+0  11616-4 0  99932 59895  43.0036  97.1485 0001777 273.6197  86.4451 15.27576992131113

JSON: /api/v1/satellites/59895 · /tle

For live sub-satellite position, see the globe view (requires WebGL).

§ Visibility from observer

Set your observer location to see the next 7 days of passes ≥ 10°. The values pass through the URL so the page stays shareable.

No JS? Fill the form by hand. The geolocation button needs JavaScript.